Regional Weather Roundup
Issued by NWS

Home | Current Version | Previous Version | Graphics & Text | Print | Product List | Glossary Off
Versions: 1 2 3 4 5 6 7 8 9 10 11 12 13 14 15 16 17 18 19 20 21 22 23 24 25 26 27 28 29 30 31 32 33 34 35 36 37 38 39 40 41 42 43 44 45 46 47 48 49 50

000
ASUS43 KTOP 030859
RWRKS

WEATHER ROUNDUP FOR KANSAS
NATIONAL WEATHER SERVICE GOODLAND KS
400 AM CDT THU SEP 03 2015

NOTE:  "FAIR" INDICATES FEW OR NO CLOUDS BELOW 12,000 FEET WITH NO
SIGNIFICANT WEATHER AND/OR OBSTRUCTIONS TO VISIBILITY.

KSZ001>006-013>018-027>032-041>047-031000-
NORTHWEST KANSAS

CITY           SKY/WX    TMP DP  RH WIND       PRES   REMARKS
GOODLAND       CLEAR     63  55  75 S5        29.88S
HAYS           PTCLDY    75  57  53 S10       29.86S
HILL CITY      PTCLDY    76  58  53 S5        29.84S
RUSSELL        PTCLDY    78  60  53 S16G24    29.85S
$$

KSZ061>065-074>080-084>089-031000-
SOUTHWEST KANSAS

CITY           SKY/WX    TMP DP  RH WIND       PRES   REMARKS
DODGE CITY     CLEAR     72  56  57 S12       29.90F
ELKHART          N/A     71  51  49 SW12        N/A
GARDEN CITY    PTCLDY    68  57  68 S7        29.88F
GREAT BEND     CLEAR     73  61  64 S14       29.88S
LIBERAL        PTCLDY    72  54  53 S9        29.91S
$$

KSZ066>073-081>083-090>101-031000-
SOUTHEAST KANSAS

CITY           SKY/WX    TMP DP  RH WIND       PRES   REMARKS
CHANUTE        CLEAR     71  67  87 S7        29.96R
COFFEYVILLE    CLEAR     70  68  93 S3        29.95S
HUTCHINSON     CLEAR     74  61  63 S10       29.91S
NEWTON         CLEAR     73  59  60 S9        29.95S
PARSONS        CLEAR     71  68  90 CALM      29.96S
WICHITA INTL   PTCLDY    73  63  70 S9        29.92S
WICHITA JABRA  CLEAR     72  63  73 S9        29.93R
WINFIELD       CLEAR     73  64  73 S7        29.94S
$$

KSZ007>012-019>026-033>040-048>060-102>105-031000-
NORTHEAST KANSAS

CITY           SKY/WX    TMP DP  RH WIND       PRES   REMARKS
CONCORDIA      PTCLDY    76  63  64 S18G26    29.85S
EMPORIA        PTCLDY    71  66  84 S14       29.92S
LAWRENCE       PTCLDY    74  68  81 VRB7      29.92S
MANHATTAN      PTCLDY    77  65  66 S9        29.89R
OLATHE IND     PTCLDY    71  68  90 S8        29.95S
OLATHE EXE     PTCLDY    70  67  90 S6        29.95R
SALINA         MOCLDY    78  62  57 S16       29.87S
TOPEKA BILLARD CLEAR     75  68  78 S10       29.91S
TOPEKA FORBES  CLEAR     74  68  81 S8        29.92S
$$


USA.gov is the U.S. government's official web portal to all federal, state and local government web resources and services.